Regional Weather Roundup
Issued by NWS

Home | Current Version | Previous Version | Text Only | Print | Product List | Glossary Off
Versions: 1 2 3 4 5 6 7 8 9 10 11 12 13 14 15 16 17 18 19 20 21 22 23 24 25 26 27 28 29 30 31 32 33 34 35 36 37 38 39 40 41 42 43 44 45 46 47 48 49 50

000
ASUS43 KLMK 240510
RWRKY
KENTUCKY REGIONAL WEATHER ROUNDUP
NATIONAL WEATHER SERVICE LOUISVILLE KY
100 AM EDT SAT JUN 24 2017

NOTE "FAIR" INDICATES FEW OR NO CLOUDS BELOW 12,000 FEET
WITH NO SIGNIFICANT WEATHER AND/OR OBSTRUCTIONS TO VISIBILITY.

KYZ001>023-026-027-061>063-070>075-240600-
WESTERN AND SOUTH CENTRAL KENTUCKY

CITY           SKY/WX    TMP DP  RH WIND       PRES   REMARKS
PADUCAH        PTCLDY    71  63  75 CALM      29.91S
HENDERSON      MOCLDY    70  68  93 NW5       29.91S
OWENSBORO      MOCLDY    72  69  90 CALM      29.90S
HOPKINSVILLE   PTCLDY    72  71  97 CALM      29.90S
BOWLING GREEN  MOCLDY    74  73  97 N5        29.89S
GLASGOW        CLOUDY    73  73 100 NW3       29.89S
$$

KYZ024-025-028>034-038-045-046-053-240600-
NORTH CENTRAL KENTUCKY

CITY           SKY/WX    TMP DP  RH WIND       PRES   REMARKS
LOUISVILLE/SDF PTCLDY    71  67  87 N3        29.89R
LOUISVILLE/LOU CLOUDY    71  70  96 NW5       29.90R
FORT KNOX      PTCLDY    69  68  96 NW5       29.89R
$$

KYZ035>037-039>044-047>052-055>060-089>105-240600-
NORTHEAST KENTUCKY

CITY           SKY/WX    TMP DP  RH WIND       PRES   REMARKS
LEXINGTON      LGT RAIN  69  66  90 S7        29.90R
COVINGTON      CLOUDY    66  65  96 CALM      29.88R
FRANKFORT      CLOUDY    70  67  90 CALM      29.88R
$$

KYZ054-064>069-076>088-106>120-240600-
SOUTHEAST KENTUCKY

CITY           SKY/WX    TMP DP  RH WIND       PRES   REMARKS
JACKSON        FOG       66  65  96 CALM      29.92F VSB 3/4
LONDON         MOCLDY    68  66  93 S5        29.92F
SOMERSET       CLOUDY    68  68 100 CALM      29.92F
MIDDLESBORO    CLOUDY    67  67 100 CALM      29.95F
MONTICELLO     CLOUDY    71  70  96 W8        29.92F
$$





USA.gov is the U.S. government's official web portal to all federal, state and local government web resources and services.